Montgomery, AL

5:02 AM CST on January 21, 2017 (GMT -0600)
Maxwell AFB

Weather History for KMXF - April, 2014

Change the Weather History Date:

Tuesday, April 15, 2014

  Actual Average Record
Temperature  
Mean Temperature 57 °F -  
Max Temperature 66 °F 76 °F 87 °F (2006)
Min Temperature 46 °F 53 °F 38 °F (2008)
Degree Days  
Heating Degree Days 8    
Growing Degree Days 7 (Base 50)    
Moisture  
Dew Point 50 °F    
Average Humidity 85    
Maximum Humidity 100    
Minimum Humidity 46    
Precipitation  
Precipitation 0.16 in - - ()
Sea Level Pressure  
Sea Level Pressure 29.92 in    
Wind  
Wind Speed 9 mph (NW)    
Max Wind Speed 20 mph    
Max Gust Speed 30 mph    
Visibility 10 miles    
Events Rain    
Averages and records for this station are not official NWS values.
T = Trace of Precipitation, MM = Missing Value Source: NWS Daily Summary

Daily Weather History Graph

Daily Weather History Graph

Search for Another Location

Airport or City:

Trip Planner

Search our weather history database for the weather conditions in past years. The results will help you decide how hot, cold, wet, or windy it might be!

Date:

Astronomy

Apr. 15, 2014 Rise Set
Actual Time 6:16 AM CDT 7:15 PM CDT
Civil Twilight 5:51 AM CDT 7:40 PM CDT
Nautical Twilight 5:21 AM CDT 8:10 PM CDT
Astronomical Twilight 4:50 AM CDT 8:41 PM CDT
Moon 7:53 PM CDT (4/15) 6:24 AM CDT (4/15)
Length of Visible Light 13h 49m
Length of Day
12h 58m
Full, 100% of the Moon is Illuminated
Apr 15
Full
Apr 22
Last Quarter
Apr 29
New
May 6
First Quarter
May 14
Full

Hourly Weather History & Observations

Time (CDT) Temp. Windchill Dew Point Humidity Pressure Visibility Wind Dir Wind Speed Gust Speed Precip Events Conditions
12:35 AM 66.2 °F - 66.2 °F 100% 29.81 in 10.0 mi NW 5.8 mph - N/A Rain Light Rain
12:58 AM 66.0 °F - 65.7 °F 99% 29.83 in 10.0 mi WNW 5.8 mph - 0.00 in Rain Light Rain
1:29 AM 66.2 °F - 66.2 °F 100% 29.78 in 10.0 mi ESE 4.6 mph - N/A   Mostly Cloudy
1:57 AM 66.2 °F - 66.2 °F 100% 29.74 in 10.0 mi East 5.8 mph - N/A Rain Light Rain
1:58 AM 65.7 °F - 65.3 °F 99% 29.75 in 10.0 mi East 5.8 mph - 0.02 in Rain Light Rain
2:58 AM 65.5 °F - 65.1 °F 99% 29.76 in 5.0 mi West 4.6 mph - 0.04 in Rain Rain
3:43 AM 64.4 °F - 64.4 °F 100% 29.74 in 9.0 mi SW 3.5 mph - N/A Rain Light Rain
3:53 AM 64.4 °F - 64.4 °F 100% 29.75 in 8.0 mi West 5.8 mph - N/A Rain Light Rain
3:58 AM 64.9 °F - 64.6 °F 99% 29.76 in 8.0 mi Variable 3.5 mph - 0.08 in Rain Light Rain
4:13 AM 64.4 °F - 64.4 °F 100% 29.75 in 10.0 mi WSW 4.6 mph - N/A   Light Drizzle
4:14 AM 64.4 °F - 64.4 °F 100% 29.75 in 10.0 mi SW 4.6 mph - N/A   Overcast
4:24 AM 64.4 °F - 64.4 °F 100% 29.75 in 10.0 mi WSW 6.9 mph - N/A   Overcast
4:34 AM 64.4 °F - 64.4 °F 100% 29.74 in 10.0 mi WSW 5.8 mph - N/A   Overcast
4:39 AM 64.4 °F - 64.4 °F 100% 29.75 in 10.0 mi West 10.4 mph - N/A   Overcast
4:49 AM 62.6 °F - 62.6 °F 100% 29.76 in 10.0 mi WNW 15.0 mph 25.3 mph N/A   Overcast
4:58 AM 60.1 °F - 59.9 °F 99% 29.78 in 10.0 mi WNW 11.5 mph 23.0 mph 0.00 in   Overcast
5:03 AM 59.0 °F - 59.0 °F 100% 29.78 in 10.0 mi WNW 13.8 mph 20.7 mph N/A   Overcast
5:38 AM 55.4 °F - 55.4 °F 100% 29.79 in 7.0 mi WNW 12.7 mph 23.0 mph N/A   Overcast
5:42 AM 55.4 °F - 53.6 °F 94% 29.80 in 6.0 mi WNW 10.4 mph 20.7 mph N/A Rain Light Rain
5:58 AM 54.1 °F - 53.6 °F 98% 29.81 in 5.0 mi NW 13.8 mph - 0.00 in Rain Light Rain
6:17 AM 51.8 °F - 51.8 °F 100% 29.81 in 7.0 mi WNW 10.4 mph 21.9 mph N/A   Overcast
6:32 AM 51.8 °F - 50.0 °F 94% 29.84 in 7.0 mi WNW 12.7 mph 19.6 mph N/A   Overcast
6:47 AM 50.0 °F - 50.0 °F 100% 29.86 in 10.0 mi NW 10.4 mph 23.0 mph N/A   Overcast
6:58 AM 50.2 °F - 48.9 °F 95% 29.88 in 10.0 mi NW 11.5 mph 18.4 mph 0.01 in   Overcast
7:22 AM 50.0 °F - 48.2 °F 94% 29.88 in 10.0 mi NW 13.8 mph 20.7 mph N/A   Light Drizzle
7:50 AM 50.0 °F - 48.2 °F 94% 29.90 in 10.0 mi NW 12.7 mph - N/A   Overcast
7:52 AM 50.0 °F - 48.2 °F 94% 29.90 in 10.0 mi WNW 16.1 mph 20.7 mph N/A   Light Drizzle
7:58 AM 49.5 °F - 47.5 °F 93% 29.92 in 9.0 mi WNW 10.4 mph 20.7 mph 0.00 in   Light Drizzle
8:09 AM 50.0 °F - 48.2 °F 94% 29.91 in 10.0 mi WNW 15.0 mph 19.6 mph N/A   Overcast
8:12 AM 50.0 °F - 48.2 °F 94% 29.91 in 10.0 mi WNW 12.7 mph 19.6 mph N/A   Light Drizzle
8:24 AM 48.2 °F - 46.4 °F 93% 29.91 in 10.0 mi NW 11.5 mph 19.6 mph N/A   Overcast
8:39 AM 48.2 °F - 46.4 °F 93% 29.93 in 9.0 mi WNW 10.4 mph 20.7 mph N/A   Overcast
8:58 AM 50.0 °F - 46.4 °F 87% 29.94 in 10.0 mi WNW 11.5 mph - 0.01 in   Overcast
9:03 AM 48.2 °F - 46.4 °F 93% 29.94 in 10.0 mi WNW 13.8 mph 21.9 mph N/A   Overcast
11:32 AM 50.0 °F - 42.8 °F 76% 30.02 in 10.0 mi NW 15.0 mph 23.0 mph N/A   Overcast
11:37 AM 48.2 °F - 42.8 °F 82% 30.02 in 10.0 mi NW 13.8 mph 23.0 mph N/A   Overcast
11:47 AM 48.2 °F - 42.8 °F 82% 30.03 in 10.0 mi NNW 18.4 mph 27.6 mph N/A   Overcast
11:58 AM 49.3 °F - 42.6 °F 78% 30.03 in 10.0 mi NNW 16.1 mph 21.9 mph N/A   Overcast
12:08 PM 48.2 °F - 42.8 °F 82% 30.03 in 10.0 mi NW 18.4 mph 25.3 mph N/A   Overcast
12:37 PM 48.2 °F - 41.0 °F 76% 30.04 in 10.0 mi NNW 18.4 mph 29.9 mph N/A   Overcast
12:52 PM 50.0 °F - 41.0 °F 71% 30.04 in 10.0 mi NW 15.0 mph 23.0 mph N/A   Overcast
12:58 PM 50.2 °F - 40.8 °F 70% 30.05 in 10.0 mi NW 13.8 mph 23.0 mph N/A   Overcast
1:28 PM 51.8 °F - 41.0 °F 67% 30.05 in 10.0 mi NNW 17.3 mph 26.5 mph N/A   Overcast
1:58 PM 53.2 °F - 40.8 °F 63% 30.05 in 10.0 mi North 19.6 mph 26.5 mph N/A   Overcast
2:58 PM 53.2 °F - 40.6 °F 62% 30.06 in 10.0 mi NW 11.5 mph 20.7 mph N/A   Overcast
3:58 PM 54.0 °F - 37.4 °F 54% 30.07 in 10.0 mi NW 15.0 mph 24.2 mph N/A   Partly Cloudy
4:58 PM 56.1 °F - 37.0 °F 49% 30.04 in 10.0 mi North 16.1 mph - N/A   Clear
5:22 PM 57.2 °F - 37.4 °F 48% 30.02 in 10.0 mi North 15.0 mph 21.9 mph N/A   Clear
5:58 PM 56.7 °F - 36.1 °F 46% 30.05 in 10.0 mi North 12.7 mph 18.4 mph N/A   Clear
6:58 PM 54.5 °F - 35.8 °F 49% 30.06 in 10.0 mi NNW 11.5 mph - N/A   Clear
7:58 PM 52.0 °F - 37.0 °F 57% 30.10 in 10.0 mi NNW 5.8 mph - N/A   Clear
8:58 PM 49.8 °F - 37.6 °F 63% 30.15 in 10.0 mi NW 3.5 mph - N/A   Clear
9:58 PM 49.6 °F - 35.8 °F 59% 30.18 in 10.0 mi North 10.4 mph - N/A   Clear
10:58 PM 48.7 °F - 34.7 °F 58% 30.18 in 10.0 mi North 11.5 mph - N/A   Clear
11:58 PM 46.4 °F 41.5 °F 36.1 °F 67% 30.18 in 10.0 mi North 10.4 mph - N/A   Clear